User: anonymous   Login
Location: Newark
(43.5831°N, 21.3381°E)
Time: 02:00:16
(UTC+00:00)
Language:

XW-2B - Orbit

View from above orbital plane
View from above orbital plane
View from above satellite
View from above satellite

Ground track
Ground track

The orbit data is extracted from the following two-line orbital elements,

1 40911U 15049N   20058.81589414  .00000695  00000-0  39500-4 0  9990
2 40911  97.4747  62.1940 0015195  41.7019  81.2469 15.16088371245405
Epoch (UTC): 27 February 2020 19:34:53
Eccentricity: 0.0015195
inclination: 97.4747°
perigee height: 507 km
apogee height: 528 km
right ascension of ascending node: 62.1940°
argument of perigee: 41.7019°
revolutions per day: 15.16088371
mean anomaly at epoch: 81.2469°
orbit number at epoch: 24540

The dashed part of the orbit path shows where the satellite is in the earth's shadow,  

DLR